Lakeville, MN

12:20 PM CDT on June 28, 2017 (GMT -0500)
Airlake

Weather History for KLVN - October, 2010

Change the Weather History Date:

Sunday, October 31, 2010

  Actual Average Record
Temperature  
Mean Temperature 34 °F -  
Max Temperature 46 °F 53 °F 85 °F (1950)
Min Temperature 23 °F 34 °F 15 °F (1996)
Degree Days  
Heating Degree Days 30    
Moisture  
Dew Point 28 °F    
Average Humidity 81    
Maximum Humidity 100    
Minimum Humidity 50    
Precipitation  
Precipitation 0.00 in - - ()
Sea Level Pressure  
Sea Level Pressure 30.21 in    
Wind  
Wind Speed 0 mph (East)    
Max Wind Speed 7 mph    
Max Gust Speed -    
Visibility 10 miles    
Events      
Averages and records for this station are not official NWS values.
T = Trace of Precipitation, MM = Missing Value Source: NWS Daily Summary

Daily Weather History Graph

Daily Weather History Graph

Search for Another Location

Airport or City:

Trip Planner

Search our weather history database for the weather conditions in past years. The results will help you decide how hot, cold, wet, or windy it might be!

Date:

Astronomy

Oct. 31, 2010 Rise Set
Actual Time 7:49 AM CDT 6:03 PM CDT
Civil Twilight 7:18 AM CDT 6:33 PM CDT
Nautical Twilight 6:44 AM CDT 7:07 PM CDT
Astronomical Twilight 6:10 AM CDT 7:41 PM CDT
Moon 12:59 AM CDT (10/31) 2:54 PM CDT (10/31)
Length of Visible Light 11h 14m
Length of Day
10h 13m
Last Quarter, 37% of the Moon is Illuminated
Oct 31
Last Quarter
Nov 5
New
Nov 13
First Quarter
Nov 21
Full
Nov 28
Last Quarter

Hourly Weather History & Observations

Time (CDT) Temp. Windchill Dew Point Humidity Pressure Visibility Wind Dir Wind Speed Gust Speed Precip Events Conditions
12:14 AM 28.4 °F - 26.6 °F 93% 30.11 in 10.0 mi Calm Calm - N/A   Clear
12:33 AM 28.4 °F - 26.6 °F 93% 30.11 in 10.0 mi Calm Calm - N/A   Clear
12:54 AM 28.4 °F - 28.4 °F 100% 30.11 in 10.0 mi Calm Calm - N/A   Clear
1:14 AM 28.4 °F - 26.6 °F 93% 30.12 in 10.0 mi Calm Calm - N/A   Clear
1:33 AM 26.6 °F - 26.6 °F 100% 30.12 in 10.0 mi Calm Calm - N/A   Clear
1:54 AM 26.6 °F - 26.6 °F 100% 30.13 in 10.0 mi Calm Calm - N/A   Clear
2:13 AM 28.4 °F - 28.4 °F 100% 30.13 in 10.0 mi Calm Calm - N/A   Clear
2:33 AM 24.8 °F - 24.8 °F 100% 30.14 in 10.0 mi Calm Calm - N/A   Clear
2:54 AM 28.4 °F - 28.4 °F 100% 30.14 in 10.0 mi Calm Calm - N/A   Clear
3:14 AM 24.8 °F - 24.8 °F 100% 30.15 in 10.0 mi Calm Calm - N/A   Clear
3:34 AM 28.4 °F - 28.4 °F 100% 30.15 in 10.0 mi Calm Calm - N/A   Clear
3:54 AM 28.4 °F - 26.6 °F 93% 30.15 in 10.0 mi Calm Calm - N/A   Clear
4:14 AM 26.6 °F - 26.6 °F 100% 30.16 in 10.0 mi Calm Calm - N/A   Clear
4:34 AM 26.6 °F - 24.8 °F 93% 30.17 in 10.0 mi Calm Calm - N/A   Clear
4:53 AM 24.8 °F - 23.0 °F 93% 30.17 in 10.0 mi Calm Calm - N/A   Clear
5:14 AM 26.6 °F - 26.6 °F 100% 30.18 in 10.0 mi Calm Calm - N/A   Clear
5:34 AM 24.8 °F - 24.8 °F 100% 30.18 in 10.0 mi Calm Calm - N/A   Clear
5:54 AM 23.0 °F - 21.2 °F 93% 30.19 in 10.0 mi Calm Calm - N/A   Clear
6:14 AM 23.0 °F - 23.0 °F 100% 30.20 in 10.0 mi Calm Calm - N/A   Clear
6:33 AM 24.8 °F - 23.0 °F 93% 30.20 in 10.0 mi Calm Calm - N/A   Clear
6:54 AM 24.8 °F - 24.8 °F 100% 30.21 in 10.0 mi Calm Calm - N/A   Clear
7:13 AM 24.8 °F - 24.8 °F 100% 30.21 in 10.0 mi Calm Calm - N/A   Clear
7:34 AM 24.8 °F - 24.8 °F 100% 30.20 in 10.0 mi Calm Calm - N/A   Clear
7:54 AM 26.6 °F - 24.8 °F 93% 30.20 in 10.0 mi Calm Calm - N/A   Clear
8:33 AM 24.8 °F - 24.8 °F 100% 30.20 in 7.0 mi Calm Calm - N/A   Clear
8:54 AM 26.6 °F - 24.8 °F 93% 30.20 in 10.0 mi Calm Calm - N/A   Clear
9:13 AM 28.4 °F - 28.4 °F 100% 30.22 in 10.0 mi Calm Calm - N/A   Clear
9:34 AM 32.0 °F - 30.2 °F 93% 30.23 in 10.0 mi Calm Calm - N/A   Clear
9:53 AM 33.8 °F - 30.2 °F 87% 30.25 in 10.0 mi Calm Calm - N/A   Clear
10:14 AM 35.6 °F - 30.2 °F 81% 30.26 in 10.0 mi Calm Calm - N/A   Clear
10:33 AM 35.6 °F - 32.0 °F 87% 30.27 in 10.0 mi Calm Calm - N/A   Clear
10:53 AM 37.4 °F - 30.2 °F 75% 30.27 in 10.0 mi Calm Calm - N/A   Clear
11:14 AM 37.4 °F - 32.0 °F 81% 30.28 in 10.0 mi Calm Calm - N/A   Clear
11:53 AM 42.8 °F 38.6 °F 28.4 °F 57% 30.27 in 10.0 mi SSE 6.9 mph - N/A   Clear
12:14 PM 42.8 °F 39.3 °F 30.2 °F 61% 30.26 in 10.0 mi SE 5.8 mph - N/A   Clear
12:33 PM 42.8 °F 40.1 °F 30.2 °F 61% 30.26 in 10.0 mi East 4.6 mph - N/A   Clear
12:54 PM 44.6 °F 42.2 °F 30.2 °F 57% 30.25 in 10.0 mi SE 4.6 mph - N/A   Clear
1:13 PM 44.6 °F 42.2 °F 30.2 °F 57% 30.25 in 10.0 mi East 4.6 mph - N/A   Clear
1:33 PM 44.6 °F - 30.2 °F 57% 30.24 in 10.0 mi Calm Calm - N/A   Clear
1:54 PM 44.6 °F - 30.2 °F 57% 30.24 in 10.0 mi Calm Calm - N/A   Clear
2:14 PM 44.6 °F - 30.2 °F 57% 30.23 in 10.0 mi Calm Calm - N/A   Clear
2:33 PM 46.4 °F - 30.2 °F 53% 30.22 in 10.0 mi Calm Calm - N/A   Clear
2:54 PM 44.6 °F - 30.2 °F 57% 30.22 in 10.0 mi Calm Calm - N/A   Clear
3:13 PM 46.4 °F - 28.4 °F 50% 30.22 in 10.0 mi Calm Calm - N/A   Clear
3:33 PM 46.4 °F - 28.4 °F 50% 30.23 in 10.0 mi Calm Calm - N/A   Clear
3:53 PM 46.4 °F - 30.2 °F 53% 30.23 in 10.0 mi Calm Calm - N/A   Clear
4:13 PM 44.6 °F - 30.2 °F 57% 30.23 in 10.0 mi Calm Calm - N/A   Clear
4:33 PM 44.6 °F - 30.2 °F 57% 30.23 in 10.0 mi Calm Calm - N/A   Clear
4:53 PM 44.6 °F - 30.2 °F 57% 30.23 in 10.0 mi Calm Calm - N/A   Clear
5:13 PM 44.6 °F 42.2 °F 30.2 °F 57% 30.23 in 10.0 mi NE 4.6 mph - N/A   Clear
5:33 PM 42.8 °F 41.1 °F 30.2 °F 61% 30.23 in 10.0 mi NE 3.5 mph - N/A   Clear
5:53 PM 41.0 °F - 30.2 °F 65% 30.24 in 10.0 mi Calm Calm - N/A   Clear
6:14 PM 39.2 °F - 30.2 °F 70% 30.25 in 10.0 mi Calm Calm - N/A   Clear
6:33 PM 39.2 °F - 28.4 °F 65% 30.25 in 10.0 mi Calm Calm - N/A   Clear
7:14 PM 37.4 °F - 28.4 °F 70% 30.26 in 10.0 mi Calm Calm - N/A   Clear
7:33 PM 37.4 °F - 28.4 °F 70% 30.26 in 10.0 mi Calm Calm - N/A   Clear
7:54 PM 33.8 °F - 28.4 °F 81% 30.26 in 10.0 mi Calm Calm - N/A   Clear
8:14 PM 28.4 °F - 26.6 °F 93% 30.26 in 10.0 mi Calm Calm - N/A   Clear
8:34 PM 30.2 °F - 28.4 °F 93% 30.27 in 10.0 mi Calm Calm - N/A   Clear
9:14 PM 28.4 °F - 26.6 °F 93% 30.27 in 10.0 mi Calm Calm - N/A   Clear
9:33 PM 28.4 °F - 26.6 °F 93% 30.28 in 10.0 mi Calm Calm - N/A   Clear
9:53 PM 28.4 °F - 26.6 °F 93% 30.29 in 10.0 mi Calm Calm - N/A   Clear
10:14 PM 28.4 °F - 28.4 °F 100% 30.30 in 10.0 mi Calm Calm - N/A   Clear
10:33 PM 28.4 °F - 28.4 °F 100% 30.31 in 10.0 mi Calm Calm - N/A   Clear
10:53 PM 26.6 °F - 26.6 °F 100% 30.31 in 10.0 mi Calm Calm - N/A   Clear
11:13 PM 28.4 °F - 26.6 °F 93% 30.32 in 10.0 mi Calm Calm - N/A   Clear
11:33 PM 26.6 °F - 24.8 °F 93% 30.32 in 10.0 mi Calm Calm - N/A   Clear
11:53 PM 26.6 °F - 26.6 °F 100% 30.33 in 10.0 mi Calm Calm - N/A   Clear